[[{"header":{"parameterUnit":"m.s-1","parameterCategory":2,"la1":30.2991,"la2":30.254,"lo1":-89.0895,"lo2":-89.0444,"dy":0.0017,"dx":0.0017,"nx":28,"ny":28,"refTime":"2026-01-30T03:00:00:Z","depth":"0","parameterNumber":2,"parameterNumberName":"U-component_of_CURRENTS"},"data":[0,0,0,0,0,0,0,0,0,0,0,0,0,0,0,0,0,0,0,0,0,0,0,0,0,0,0,0,0,0,0,0,0,0,0,0,0,0,0,0,0,0,0,0,0,0,0,0,0,0,0,0,0,0,0,0,0,0,-0.3721,-0.3721,0,-0.3694,-0.3694,-0.3693,-0.367,-0.367,-0.367,-0.367,-0.3496,-0.3492,-0.3487,0,0,0,0,0,0,0,0,0,0,0,0,0,-0.3737,-0.3736,-0.3721,-0.3721,-0.3721,-0.3695,-0.3694,-0.3693,-0.367,-0.367,-0.367,-0.367,-0.3498,-0.3492,-0.3487,0,0,0,0,0,0,0,0,0,0,0,0,0,-0.3719,-0.3736,-0.3721,-0.3708,-0.3707,-0.3695,-0.3694,-0.3693,-0.367,-0.367,-0.367,-0.367,-0.3499,-0.3493,-0.3486,-0.3444,0,0,-0.3465,-0.3462,0,0,0,0,0,0,0,0,-0.372,-0.3718,-0.371,-0.3709,-0.3707,-0.3688,-0.3636,-0.3603,-0.367,-0.3681,-0.367,-0.367,-0.3548,-0.3538,-0.3531,-0.3436,-0.3428,-0.3464,-0.346,-0.3457,-0.3455,0,0,0,0,0,0,0,-0.3722,-0.3719,-0.3707,-0.371,-0.3708,-0.3699,-0.3696,-0.363,-0.361,-0.368,-0.3679,-0.368,-0.3546,-0.3538,-0.3526,-0.3426,-0.3464,-0.3458,-0.3454,-0.3451,-0.3254,-0.3253,0,0,0,0,0,0,-0.3731,-0.3721,-0.3708,-0.3707,-0.3717,-0.3699,-0.3696,-0.3692,-0.3614,-0.3604,-0.368,-0.3679,-0.3549,-0.3534,-0.352,-0.3435,-0.3457,-0.3451,-0.3447,-0.3255,-0.3254,-0.3252,0,0,0,0,0,0,-0.3732,-0.373,-0.3709,-0.3716,-0.3713,-0.3699,-0.3695,-0.3691,-0.3686,-0.3617,-0.3603,-0.368,-0.3549,-0.3529,-0.3469,-0.3429,-0.3447,-0.3441,-0.3256,-0.3254,-0.3253,-0.3283,0,0,0,0,0,0,-0.3732,-0.373,-0.3729,-0.3716,-0.3713,-0.3711,-0.3695,-0.3691,-0.3689,-0.3687,-0.3611,-0.3595,-0.3547,-0.348,-0.3462,-0.3419,-0.3436,-0.3258,-0.3255,-0.3253,-0.3283,-0.3282,-0.3282,0,0,0,0,0,-0.3733,-0.3739,-0.3729,-0.3728,-0.3712,-0.3712,-0.3709,-0.3697,-0.3689,-0.3691,-0.364,-0.3598,-0.3453,-0.3474,-0.3453,-0.3407,-0.3259,-0.3256,-0.3254,-0.3284,-0.3283,-0.3282,0,0,0,0,0,0,-0.3746,-0.3737,-0.3726,-0.3728,-0.3723,-0.371,-0.3709,-0.3702,-0.3666,-0.3658,-0.3591,-0.3572,-0.3501,-0.3455,-0.348,-0.3345,-0.3345,-0.3338,-0.3374,-0.3373,-0.3372,-0.3365,-0.343,0,0,0,0,0,-0.3748,-0.3746,-0.3739,-0.3737,-0.3737,-0.3722,-0.372,-0.3715,-0.3686,-0.3672,-0.3618,-0.3548,-0.3473,-0.3429,-0.3367,-0.3296,-0.3272,-0.325,-0.325,-0.3249,-0.323,-0.3205,-0.3201,-0.3244,-0.3244,-0.3244,0,0,-0.375,-0.3746,-0.3743,-0.374,-0.373,-0.3703,-0.372,-0.3723,-0.368,-0.3653,-0.3581,-0.3548,-0.3457,-0.3382,-0.3343,-0.3337,-0.3223,-0.3246,-0.3247,-0.3227,-0.3202,-0.3198,-0.3194,-0.3243,-0.3243,-0.3243,0,0,-0.3736,-0.3752,-0.373,-0.3727,-0.3721,-0.371,-0.3713,-0.3702,-0.368,-0.3625,-0.3584,-0.3542,-0.3428,-0.3366,-0.3312,-0.3267,-0.3228,-0.3239,-0.3216,-0.3193,-0.3189,-0.3186,-0.3152,-0.3145,-0.323,-0.323,-0.323,0,-0.3731,-0.3692,-0.3727,-0.37,-0.3675,-0.3707,-0.366,-0.3648,-0.3616,-0.3589,-0.36,-0.3468,-0.3411,-0.3299,-0.3284,-0.3262,-0.3246,-0.3231,-0.3194,-0.319,-0.3186,-0.3152,-0.3145,-0.3231,-0.3231,-0.3231,-0.3231,0,-0.368,-0.3651,-0.3645,-0.3602,-0.3598,-0.3575,-0.3564,-0.3558,-0.3544,-0.3525,-0.3457,-0.3413,-0.3334,-0.3309,-0.3272,-0.3201,-0.3198,-0.3209,-0.3204,-0.3184,-0.3149,-0.314,-0.3233,-0.3232,-0.3232,-0.3232,0,0,-0.3604,-0.3604,-0.3584,-0.3549,-0.3536,-0.3523,-0.348,-0.3437,-0.3414,-0.3399,-0.3345,-0.3253,-0.328,-0.3221,-0.3195,-0.3172,-0.3138,-0.3176,-0.3174,-0.3154,-0.308,-0.2989,-0.2971,-0.3156,-0.3154,-0.3153,-0.3068,0,-0.3516,-0.345,-0.3469,-0.3384,-0.3335,-0.337,-0.3331,-0.3319,-0.3317,-0.3296,-0.3272,-0.3222,-0.3226,-0.321,-0.3186,-0.3156,-0.3116,-0.3159,-0.3089,-0.3086,-0.3019,-0.2958,-0.283,-0.2735,-0.3059,-0.3058,-0.3057,0,-0.3386,-0.3368,-0.328,-0.3259,-0.3246,-0.3219,-0.3186,-0.3166,-0.3173,-0.3181,-0.3169,-0.3176,-0.3125,-0.3153,-0.3084,-0.3117,-0.3083,-0.307,-0.3067,-0.296,-0.2978,-0.2804,-0.2707,-0.2684,-0.3044,-0.3045,-0.3046,0,-0.3241,-0.3201,-0.3128,-0.3116,-0.3123,-0.3099,-0.3106,-0.312,-0.3116,-0.3121,-0.3137,-0.3103,-0.3091,-0.3059,-0.3037,-0.306,-0.2979,-0.3007,-0.2883,-0.2877,-0.2737,-0.272,-0.2612,-0.2936,-0.2937,-0.2937,-0.2937,0,-0.3079,-0.3012,-0.3067,-0.3026,-0.2974,-0.3012,-0.2979,-0.3001,-0.3038,-0.3028,-0.3078,-0.3059,-0.3073,-0.3043,-0.3016,-0.2914,-0.2955,-0.2846,-0.2836,-0.2742,-0.2727,-0.2675,-0.2719,-0.2934,-0.2934,-0.2935,-0.2936,0,-0.2886,-0.2917,-0.2859,-0.2891,-0.2898,-0.2866,-0.2921,-0.2912,-0.2974,-0.2967,-0.297,-0.3015,-0.2968,-0.2967,-0.2912,-0.2869,-0.2738,-0.2747,-0.2629,-0.2604,-0.245,-0.25,-0.2378,-0.2308,-0.2577,-0.2574,-0.2572,0,-0.2767,-0.2722,-0.2767,-0.2757,-0.2765,-0.276,-0.2762,-0.2848,-0.2858,-0.292,-0.2899,-0.2891,-0.2838,-0.2746,-0.2668,-0.2573,-0.2602,-0.241,-0.241,-0.2384,-0.2434,-0.2486,-0.2441,-0.2243,-0.2238,-0.2234,-0.223,0,-0.2568,-0.2611,-0.2598,-0.2596,-0.2596,-0.2606,-0.2627,-0.2643,-0.2734,-0.2743,-0.2733,-0.2703,-0.262,-0.2468,-0.2375,-0.231,-0.2344,-0.232,-0.232,-0.2162,-0.2182,-0.2129,-0.2371,-0.2194,-0.2198,-0.22,-0.2202,-0.2204,-0.2439,-0.241,-0.2432,-0.2408,-0.2426,-0.2432,-0.2395,-0.2459,-0.2466,-0.2454,-0.252,-0.243,-0.2329,-0.2164,-0.2095,-0.1948,-0.2051,-0.1895,-0.1958,-0.2013,-0.1931,-0.2079,-0.1881,-0.1883,-0.1884,-0.1885,-0.1887,0,-0.226,-0.2258,-0.2238,-0.2237,-0.2211,-0.227,-0.2273,-0.2203,-0.217,-0.2191,-0.216,-0.2078,-0.192,-0.1856,-0.1721,-0.1629,-0.1609,-0.1607,-0.1657,-0.1627,-0.1754,-0.1723,-0.1447,-0.1447,-0.1447,-0.1447,-0.1447,-0.1447,-0.2168,-0.2095,-0.2094,-0.201,-0.2018,-0.1925,-0.1896,-0.1801,-0.1752,-0.1653,-0.1641,-0.1629,-0.1665,-0.175,-0.16,-0.1509,-0.1498,-0.1443,-0.15,-0.1615,-0.1648,-0.168,-0.1657,-0.1371,-0.1372,-0.1288,-0.1288,-0.1288]},{"header":{"parameterUnit":"m.s-1","parameterCategory":2,"la1":30.2991,"la2":30.254,"lo1":-89.0895,"lo2":-89.0444,"dy":0.0017,"dx":0.0017,"nx":28,"ny":28,"refTime":"2026-01-30T03:00:00:Z","depth":"0","parameterNumber":3,"parameterNumberName":"V-component_of_CURRENTS"},"data":[0,0,0,0,0,0,0,0,0,0,0,0,0,0,0,0,0,0,0,0,0,0,0,0,0,0,0,0,0,0,0,0,0,0,0,0,0,0,0,0,0,0,0,0,0,0,0,0,0,0,0,0,0,0,0,0,0,0,-0.0129,-0.0128,0,-0.0036,-0.0035,-0.0034,0.0038,0.0038,0.0039,0.0039,0.0132,0.0134,0.0136,0,0,0,0,0,0,0,0,0,0,0,0,0,-0.018,-0.018,-0.0129,-0.0128,-0.0127,-0.0037,-0.0035,-0.0034,0.0038,0.0038,0.0039,0.0039,0.0131,0.0133,0.0136,0,0,0,0,0,0,0,0,0,0,0,0,0,-0.0128,-0.018,-0.0129,-0.0082,-0.0077,-0.0037,-0.0035,-0.0033,0.0037,0.0038,0.0039,0.004,0.013,0.0133,0.0136,0.014,0,0,0.0145,0.0147,0,0,0,0,0,0,0,0,-0.0131,-0.0126,-0.009,-0.0085,-0.008,-0.0012,-0.0019,0.0024,0.0037,-0.0004,0.0039,0.004,0.0082,0.0089,0.0107,0.0144,0.0148,0.0146,0.0147,0.0149,0.015,0,0,0,0,0,0,0,-0.0135,-0.0129,-0.0091,-0.0089,-0.0083,-0.0044,-0.0036,-0.001,0.0035,-0.0,0.0004,0.0012,0.0085,0.0104,0.011,0.0149,0.0146,0.0148,0.015,0.0151,0.0203,0.0202,0,0,0,0,0,0,-0.0155,-0.0133,-0.0094,-0.0088,-0.0106,-0.0044,-0.0035,-0.0033,0.0035,0.0045,0.0011,0.0015,0.0099,0.0106,0.0114,0.0121,0.0149,0.0151,0.0153,0.0203,0.0203,0.0202,0,0,0,0,0,0,-0.0156,-0.0152,-0.0097,-0.0109,-0.01,-0.0044,-0.0042,-0.0032,-0.0011,0.0043,0.0054,0.002,0.01,0.0109,0.0147,0.0125,0.0153,0.0156,0.0204,0.0203,0.0202,0.0137,0,0,0,0,0,0,-0.0158,-0.0153,-0.0163,-0.0111,-0.01,-0.0078,-0.0043,-0.003,-0.0009,-0.0003,0.0054,0.0064,0.0101,0.0142,0.015,0.013,0.0158,0.0204,0.0203,0.0203,0.014,0.0134,0.0129,0,0,0,0,0,-0.016,-0.0179,-0.0164,-0.0159,-0.0114,-0.0079,-0.0069,-0.0025,-0.0009,-0.0003,0.0044,0.0062,0.0142,0.0145,0.0154,0.0134,0.0205,0.0204,0.0203,0.0142,0.0135,0.0129,0,0,0,0,0,0,-0.0209,-0.0172,-0.0154,-0.0162,-0.0125,-0.0067,-0.0065,-0.0033,0.0009,0.0011,0.0067,0.008,0.0102,0.0129,0.013,0.0147,0.0172,0.0173,0.0122,0.0116,0.0111,0.0095,0.016,0,0,0,0,0,-0.0225,-0.0228,-0.018,-0.0187,-0.0174,-0.0121,-0.0104,-0.0072,-0.0028,-0.0009,0.0036,0.0075,0.0103,0.012,0.0152,0.0164,0.0205,0.0154,0.0149,0.0145,0.0137,0.0189,0.0188,0.0199,0.0199,0.0199,0,0,-0.0246,-0.0228,-0.0229,-0.0197,-0.0168,-0.0158,-0.0108,-0.0089,-0.0079,-0.0008,0.0017,0.006,0.0104,0.0122,0.0132,0.0143,0.0165,0.0144,0.0139,0.0134,0.0188,0.0187,0.0186,0.0198,0.0199,0.0199,0,0,-0.0289,-0.0274,-0.0287,-0.0261,-0.0225,-0.0192,-0.0191,-0.0134,-0.0108,-0.0073,-0.0027,0.0012,0.0059,0.009,0.0108,0.0093,0.0138,0.0092,0.0051,0.0101,0.01,0.01,0.0158,0.0164,0.0087,0.0086,0.0086,0,-0.0318,-0.0327,-0.0285,-0.0286,-0.0278,-0.0214,-0.0224,-0.0189,-0.0124,-0.0109,-0.0076,0.0003,0.0043,0.006,0.0057,0.008,0.0119,0.0069,0.0094,0.0095,0.0096,0.0156,0.0163,0.0083,0.0083,0.0084,0.0084,0,-0.0362,-0.0368,-0.0375,-0.036,-0.0343,-0.0342,-0.0291,-0.0268,-0.0228,-0.0184,-0.0144,-0.0071,-0.0026,-0.0012,0.002,0.0035,0.0064,0.0084,0.0108,0.0091,0.0155,0.0164,0.0078,0.008,0.0081,0.0081,0,0,-0.0437,-0.0413,-0.0419,-0.0424,-0.0385,-0.0378,-0.0368,-0.0339,-0.0332,-0.0258,-0.0238,-0.0175,-0.0125,-0.01,-0.0052,-0.0009,0.0041,0.0032,0.0036,0.0087,0.0159,0.0219,0.0235,0.0064,0.0065,0.0065,0.0203,0,-0.0489,-0.0518,-0.0488,-0.0516,-0.0527,-0.0473,-0.0467,-0.0429,-0.038,-0.0339,-0.0259,-0.0216,-0.0163,-0.0137,-0.0087,0.0009,0.0059,0.0003,0.017,0.0175,0.0229,0.0246,0.0286,0.0415,0.0212,0.0213,0.0215,0,-0.0547,-0.056,-0.0596,-0.0595,-0.0596,-0.0596,-0.0582,-0.0565,-0.0494,-0.0452,-0.0388,-0.0311,-0.0235,-0.0182,-0.0028,-0.0067,0.0034,0.0116,0.0123,0.0207,0.0252,0.0399,0.0439,0.0602,0.0229,0.0227,0.0226,0,-0.0625,-0.064,-0.0677,-0.0675,-0.0656,-0.0664,-0.0653,-0.0601,-0.059,-0.0516,-0.0485,-0.038,-0.031,-0.0185,-0.0005,-0.0018,0.0182,0.0188,0.034,0.0346,0.0428,0.0439,0.0642,0.0297,0.0297,0.0297,0.0296,0,-0.0694,-0.0725,-0.0715,-0.0732,-0.0777,-0.0734,-0.0757,-0.0728,-0.0675,-0.0651,-0.0547,-0.0488,-0.0306,-0.0162,-0.0018,0.0201,0.0179,0.0341,0.0387,0.0407,0.0415,0.0597,0.0654,0.0302,0.0301,0.03,0.0299,0,-0.0763,-0.0758,-0.0801,-0.0805,-0.081,-0.0839,-0.0831,-0.0836,-0.0777,-0.0739,-0.0714,-0.0558,-0.036,-0.0164,0.0069,0.0197,0.0503,0.047,0.0488,0.0533,0.0805,0.0855,0.1101,0.1204,0.0649,0.0651,0.0653,0,-0.0795,-0.0822,-0.0863,-0.0896,-0.0899,-0.0927,-0.094,-0.0896,-0.0886,-0.0767,-0.0746,-0.0551,-0.0386,-0.0022,0.0237,0.0512,0.0632,0.0705,0.0684,0.084,0.0929,0.0966,0.1036,0.0774,0.0776,0.0779,0.078,0,-0.0852,-0.0867,-0.0904,-0.0976,-0.1008,-0.104,-0.1044,-0.1042,-0.0963,-0.089,-0.0739,-0.0593,-0.0243,0.01,0.0448,0.0612,0.0835,0.076,0.0922,0.1047,0.1101,0.1215,0.0666,0.0801,0.0799,0.0797,0.0796,0.0795,-0.0888,-0.0937,-0.0985,-0.1051,-0.1095,-0.1116,-0.106,-0.1022,-0.0951,-0.0706,-0.0689,-0.0344,-0.0003,0.0501,0.0684,0.1074,0.103,0.119,0.1241,0.1266,0.1362,0.086,0.104,0.104,0.1039,0.1039,0.1038,0,-0.0919,-0.0976,-0.1052,-0.1115,-0.1154,-0.1153,-0.1089,-0.0941,-0.0755,-0.054,-0.0321,0.0112,0.051,0.0866,0.132,0.1541,0.1582,0.1649,0.171,0.1761,0.133,0.1331,0.1581,0.1581,0.1581,0.158,0.158,0.158,-0.0935,-0.1014,-0.106,-0.1135,-0.1161,-0.1035,-0.0937,-0.0697,-0.0451,-0.0001,0.0354,0.057,0.0902,0.1501,0.1937,0.1982,0.2172,0.2157,0.2259,0.1953,0.1914,0.1876,0.1893,0.2257,0.2258,0.2681,0.2685,0.2688]}],[{"header":{"parameterUnit":"m.s-1","parameterCategory":2,"la1":30.2991,"la2":30.254,"lo1":-89.0895,"lo2":-89.0444,"dy":0.0017,"dx":0.0017,"nx":28,"ny":28,"refTime":"2026-01-30T03:00:00:Z","depth":"2","parameterNumber":2,"parameterNumberName":"U-component_of_CURRENTS"},"data":[0,0,0,0,0,0,0,0,0,0,0,0,0,0,0,0,0,0,0,0,0,0,0,0,0,0,0,0,0,0,0,0,0,0,0,0,0,0,0,0,0,0,0,0,0,0,0,0,0,0,0,0,0,0,0,0,0,0,-0.2707,-0.2707,0,-0.2772,-0.2773,-0.2774,-0.2758,-0.2757,-0.2756,-0.2755,-0.2736,-0.2736,-0.2737,0,0,0,0,0,0,0,0,0,0,0,0,0,-0.2619,-0.262,-0.2707,-0.2707,-0.2708,-0.2772,-0.2773,-0.2774,-0.2759,-0.2757,-0.2756,-0.2754,-0.2735,-0.2736,-0.2737,0,0,0,0,0,0,0,0,0,0,0,0,0,-0.2668,-0.2621,-0.2706,-0.2708,-0.2709,-0.2772,-0.2773,-0.2774,-0.2759,-0.2757,-0.2755,-0.2753,-0.2735,-0.2736,-0.2737,-0.2781,0,0,-0.274,-0.2741,0,0,0,0,0,0,0,0,-0.2665,-0.2671,-0.2707,-0.2708,-0.2709,-0.2755,-0.2735,-0.2772,-0.2759,-0.274,-0.2755,-0.2752,-0.2736,-0.2737,-0.2754,-0.2781,-0.278,-0.274,-0.2741,-0.2741,-0.2742,0,0,0,0,0,0,0,-0.2662,-0.2669,-0.2733,-0.2708,-0.2709,-0.2723,-0.2728,-0.2743,-0.2746,-0.2742,-0.2741,-0.2748,-0.2735,-0.2754,-0.2754,-0.2779,-0.274,-0.2741,-0.2742,-0.2742,-0.2789,-0.279,0,0,0,0,0,0,-0.2653,-0.2666,-0.2731,-0.2735,-0.2682,-0.2726,-0.2731,-0.2742,-0.2748,-0.2748,-0.275,-0.2747,-0.2753,-0.2753,-0.2753,-0.2765,-0.2741,-0.2742,-0.2743,-0.2789,-0.279,-0.279,0,0,0,0,0,0,-0.2651,-0.2659,-0.2728,-0.2701,-0.2711,-0.2729,-0.2742,-0.2745,-0.2769,-0.2755,-0.2753,-0.2772,-0.2751,-0.2751,-0.2762,-0.2765,-0.2743,-0.2744,-0.2788,-0.2789,-0.279,-0.2814,0,0,0,0,0,0,-0.2649,-0.2658,-0.2668,-0.2701,-0.2712,-0.2765,-0.2744,-0.2747,-0.2776,-0.2773,-0.2773,-0.2769,-0.275,-0.2761,-0.2763,-0.2766,-0.2744,-0.2787,-0.2788,-0.279,-0.2813,-0.2816,-0.2819,0,0,0,0,0,-0.2645,-0.2667,-0.2668,-0.2676,-0.2723,-0.2767,-0.2774,-0.278,-0.2779,-0.2795,-0.2788,-0.2769,-0.2769,-0.2763,-0.2765,-0.2768,-0.2787,-0.2788,-0.279,-0.2811,-0.2815,-0.2819,0,0,0,0,0,0,-0.2634,-0.2668,-0.267,-0.27,-0.273,-0.2763,-0.2785,-0.2796,-0.281,-0.2805,-0.2789,-0.2785,-0.2793,-0.2786,-0.278,-0.2785,-0.2772,-0.2774,-0.2787,-0.2791,-0.2794,-0.278,-0.2745,0,0,0,0,0,-0.2637,-0.2655,-0.2694,-0.2714,-0.2737,-0.2767,-0.2788,-0.2796,-0.2812,-0.2818,-0.2817,-0.2811,-0.2805,-0.2802,-0.2801,-0.2817,-0.2794,-0.2817,-0.282,-0.2823,-0.2813,-0.2799,-0.2799,-0.2795,-0.2795,-0.2795,0,0,-0.2636,-0.2657,-0.2666,-0.2712,-0.2739,-0.2768,-0.2775,-0.2813,-0.2823,-0.2814,-0.283,-0.283,-0.2814,-0.2818,-0.282,-0.281,-0.2811,-0.2824,-0.2827,-0.2815,-0.28,-0.28,-0.2801,-0.2796,-0.2796,-0.2796,0,0,-0.2637,-0.2668,-0.2683,-0.2714,-0.2757,-0.2781,-0.2796,-0.2841,-0.2847,-0.2871,-0.2856,-0.2858,-0.2866,-0.2846,-0.2837,-0.2863,-0.2833,-0.2865,-0.2865,-0.2852,-0.2851,-0.2851,-0.2816,-0.2813,-0.2861,-0.2862,-0.2862,0,-0.263,-0.2655,-0.2695,-0.272,-0.2742,-0.2787,-0.2809,-0.2834,-0.2869,-0.2871,-0.2872,-0.2878,-0.2872,-0.2859,-0.286,-0.2868,-0.2849,-0.2851,-0.2854,-0.2853,-0.2853,-0.2817,-0.2813,-0.2863,-0.2863,-0.2863,-0.2862,0,-0.2641,-0.2665,-0.2684,-0.2721,-0.2755,-0.2787,-0.2826,-0.2855,-0.2874,-0.2885,-0.2894,-0.2893,-0.2886,-0.2891,-0.288,-0.2872,-0.2857,-0.2864,-0.2842,-0.2854,-0.2816,-0.2811,-0.2865,-0.2864,-0.2864,-0.2864,0,0,-0.26,-0.2675,-0.2677,-0.2693,-0.2758,-0.2784,-0.2816,-0.2849,-0.286,-0.2887,-0.2888,-0.2889,-0.2895,-0.2885,-0.2881,-0.2871,-0.2851,-0.2864,-0.2863,-0.2824,-0.2804,-0.2715,-0.27,-0.286,-0.286,-0.2859,-0.2778,0,-0.2589,-0.2627,-0.2669,-0.2699,-0.2726,-0.2779,-0.2802,-0.2835,-0.2862,-0.2879,-0.2881,-0.2885,-0.289,-0.2889,-0.2881,-0.2867,-0.284,-0.2871,-0.2803,-0.28,-0.2715,-0.2692,-0.2501,-0.2405,-0.2772,-0.2771,-0.2771,0,-0.2569,-0.2599,-0.263,-0.2685,-0.2703,-0.2725,-0.2771,-0.2798,-0.2835,-0.2854,-0.2866,-0.2876,-0.2869,-0.2874,-0.2838,-0.286,-0.2825,-0.281,-0.2807,-0.2708,-0.2701,-0.2454,-0.2381,-0.2762,-0.2763,-0.2763,-0.2764,0,-0.2501,-0.2563,-0.2583,-0.2604,-0.2679,-0.2693,-0.273,-0.2779,-0.28,-0.2835,-0.2852,-0.2854,-0.2853,-0.2828,-0.2804,-0.2819,-0.2757,-0.2773,-0.2651,-0.2644,-0.2456,-0.2433,-0.2724,-0.2724,-0.2724,-0.2724,-0.2725,0,-0.246,-0.2471,-0.2552,-0.2561,-0.2579,-0.2648,-0.2668,-0.2709,-0.2761,-0.2769,-0.2827,-0.2821,-0.2844,-0.282,-0.2791,-0.2697,-0.2741,-0.263,-0.2612,-0.2459,-0.2438,-0.2736,-0.2738,-0.2721,-0.2722,-0.2723,-0.2723,0,-0.2368,-0.243,-0.2451,-0.2526,-0.2545,-0.2553,-0.2629,-0.2641,-0.2713,-0.2725,-0.2735,-0.2789,-0.2751,-0.2753,-0.2706,-0.2662,-0.2596,-0.2546,-0.2357,-0.2317,-0.2492,-0.2497,-0.2392,-0.2388,-0.2385,-0.2382,-0.238,0,-0.2322,-0.2324,-0.2399,-0.2407,-0.2436,-0.2472,-0.249,-0.2589,-0.2607,-0.2682,-0.2669,-0.2673,-0.2623,-0.254,-0.2465,-0.2372,-0.2478,-0.2155,-0.2145,-0.2462,-0.2455,-0.2466,-0.2475,-0.1904,-0.1898,-0.1893,-0.1889,0,-0.2215,-0.2246,-0.2266,-0.229,-0.2311,-0.2341,-0.2381,-0.2398,-0.2495,-0.2513,-0.2505,-0.2476,-0.2404,-0.2221,-0.2135,-0.2065,-0.2161,-0.205,-0.2412,-0.2028,-0.1997,-0.1993,-0.2019,-0.1845,-0.1849,-0.1852,-0.1855,-0.1856,-0.2117,-0.2106,-0.2137,-0.2141,-0.2172,-0.2178,-0.2138,-0.2201,-0.2206,-0.2182,-0.2267,-0.2149,-0.2127,-0.1871,-0.177,-0.1699,-0.1851,-0.1777,-0.1794,-0.1816,-0.1785,-0.175,-0.1544,-0.1547,-0.1549,-0.1551,-0.1553,0,-0.1976,-0.198,-0.1981,-0.1986,-0.1949,-0.2018,-0.2024,-0.1954,-0.1891,-0.1915,-0.187,-0.1662,-0.153,-0.1515,-0.1326,-0.1296,-0.13,-0.125,-0.1258,-0.1301,-0.134,-0.1288,-0.0913,-0.0912,-0.091,-0.0908,0,0,-0.1901,-0.1849,-0.185,-0.1747,-0.174,-0.1618,-0.1574,-0.1524,-0.1495,-0.14,-0.1338,-0.1421,-0.1449,-0.1178,-0.112,-0.098,-0.113,-0.0928,-0.1437,-0.1488,-0.1525,-0.1637,-0.1603,0,0,0,0,0]},{"header":{"parameterUnit":"m.s-1","parameterCategory":2,"la1":30.2991,"la2":30.254,"lo1":-89.0895,"lo2":-89.0444,"dy":0.0017,"dx":0.0017,"nx":28,"ny":28,"refTime":"2026-01-30T03:00:00:Z","depth":"2","parameterNumber":3,"parameterNumberName":"V-component_of_CURRENTS"},"data":[0,0,0,0,0,0,0,0,0,0,0,0,0,0,0,0,0,0,0,0,0,0,0,0,0,0,0,0,0,0,0,0,0,0,0,0,0,0,0,0,0,0,0,0,0,0,0,0,0,0,0,0,0,0,0,0,0,0,-0.047,-0.0469,0,-0.0386,-0.0385,-0.0384,-0.0341,-0.0341,-0.0341,-0.0341,-0.0191,-0.0187,-0.0183,0,0,0,0,0,0,0,0,0,0,0,0,0,-0.0544,-0.0543,-0.047,-0.0469,-0.0468,-0.0386,-0.0385,-0.0384,-0.0341,-0.0341,-0.0341,-0.0341,-0.0193,-0.0188,-0.0183,0,0,0,0,0,0,0,0,0,0,0,0,0,-0.049,-0.0543,-0.047,-0.0438,-0.0434,-0.0387,-0.0385,-0.0383,-0.034,-0.0341,-0.0341,-0.0341,-0.0194,-0.0188,-0.0182,-0.0143,0,0,-0.0164,-0.0161,0,0,0,0,0,0,0,0,-0.0493,-0.0487,-0.0443,-0.044,-0.0436,-0.0375,-0.0356,-0.03,-0.034,-0.0375,-0.0341,-0.0341,-0.0248,-0.0237,-0.022,-0.0136,-0.013,-0.0163,-0.016,-0.0157,-0.0155,0,0,0,0,0,0,0,-0.0497,-0.049,-0.0435,-0.0442,-0.0438,-0.0411,-0.0404,-0.0345,-0.0309,-0.0372,-0.0369,-0.0361,-0.0245,-0.0226,-0.0216,-0.0127,-0.0164,-0.0158,-0.0154,-0.0152,-0.0004,-0.0004,0,0,0,0,0,0,-0.0512,-0.0494,-0.0438,-0.0433,-0.0467,-0.041,-0.0401,-0.0393,-0.0311,-0.03,-0.0361,-0.036,-0.0236,-0.0223,-0.0211,-0.0161,-0.0157,-0.0151,-0.0148,-0.0004,-0.0004,-0.0004,0,0,0,0,0,0,-0.0514,-0.0508,-0.0441,-0.0463,-0.0453,-0.0409,-0.04,-0.0392,-0.0373,-0.0304,-0.0291,-0.0352,-0.0236,-0.0219,-0.016,-0.0154,-0.0149,-0.0143,-0.0005,-0.0004,-0.0004,-0.0059,0,0,0,0,0,0,-0.0517,-0.0509,-0.051,-0.0464,-0.0452,-0.0422,-0.0399,-0.039,-0.0369,-0.0366,-0.0291,-0.0278,-0.0235,-0.017,-0.0154,-0.0146,-0.0138,-0.0005,-0.0004,-0.0004,-0.0058,-0.0061,-0.0063,0,0,0,0,0,-0.052,-0.0523,-0.051,-0.0504,-0.0454,-0.0422,-0.0414,-0.0381,-0.0369,-0.0364,-0.0311,-0.028,-0.0155,-0.0164,-0.0146,-0.0136,-0.0005,-0.0005,-0.0004,-0.0056,-0.006,-0.0063,0,0,0,0,0,0,-0.0551,-0.0517,-0.0503,-0.0494,-0.0464,-0.0416,-0.0408,-0.0384,-0.0338,-0.0335,-0.0269,-0.0251,-0.02,-0.0159,-0.017,-0.0093,-0.0078,-0.0073,-0.0124,-0.0126,-0.0129,-0.0149,-0.0133,0,0,0,0,0,-0.056,-0.0557,-0.0515,-0.051,-0.0496,-0.0452,-0.0435,-0.0414,-0.0369,-0.035,-0.0295,-0.0237,-0.0183,-0.0149,-0.0098,-0.0048,-0.001,-0.0032,-0.0035,-0.0037,-0.0042,0.0014,0.0015,-0.0001,-0.0001,-0.0001,0,0,-0.0571,-0.0553,-0.055,-0.0517,-0.049,-0.0473,-0.0442,-0.0422,-0.0404,-0.0338,-0.0294,-0.0243,-0.0173,-0.0123,-0.0097,-0.0087,-0.0011,-0.0036,-0.0039,-0.0042,0.0014,0.0016,0.0017,-0.0001,-0.0001,-0.0001,0,0,-0.0594,-0.0574,-0.0579,-0.0557,-0.0525,-0.0495,-0.0492,-0.0442,-0.0418,-0.037,-0.0321,-0.0268,-0.0183,-0.0133,-0.0096,-0.008,-0.0031,-0.0066,-0.0088,-0.0034,-0.0033,-0.0031,0.0022,0.0029,-0.0063,-0.0063,-0.0063,0,-0.0609,-0.0605,-0.0575,-0.057,-0.0554,-0.0508,-0.0502,-0.0467,-0.0406,-0.0382,-0.0366,-0.0245,-0.0188,-0.0121,-0.0119,-0.0086,-0.0051,-0.0083,-0.0039,-0.0036,-0.0034,0.002,0.0029,-0.0066,-0.0065,-0.0065,-0.0065,0,-0.063,-0.0626,-0.0626,-0.0604,-0.0583,-0.0572,-0.0523,-0.0498,-0.0462,-0.0421,-0.0355,-0.0277,-0.0208,-0.018,-0.0141,-0.0091,-0.007,-0.0054,-0.0036,-0.0036,0.0022,0.0031,-0.0069,-0.0069,-0.0068,-0.0067,0,0,-0.0664,-0.0646,-0.0645,-0.0646,-0.0601,-0.059,-0.0558,-0.0514,-0.0497,-0.043,-0.0394,-0.03,-0.0262,-0.0218,-0.0161,-0.0111,-0.0057,-0.008,-0.0076,-0.0037,0.0061,0.0091,0.0105,-0.0036,-0.0035,-0.0034,0.0094,0,-0.0688,-0.0699,-0.0674,-0.0676,-0.0675,-0.0626,-0.0603,-0.0559,-0.051,-0.0463,-0.0377,-0.0321,-0.0274,-0.0242,-0.0185,-0.0091,-0.0034,-0.0093,0.0063,0.0068,0.0087,0.0116,0.0088,0.02,0.0104,0.0105,0.0107,0,-0.0712,-0.0719,-0.073,-0.072,-0.0713,-0.0704,-0.0666,-0.0639,-0.0561,-0.0523,-0.0452,-0.0383,-0.029,-0.0258,-0.0097,-0.0138,-0.0046,0.0027,0.0035,0.0087,0.0116,0.0186,0.0222,0.0123,0.0122,0.0121,0.012,0,-0.0758,-0.0756,-0.0771,-0.0765,-0.0742,-0.0738,-0.0719,-0.0659,-0.064,-0.0559,-0.0534,-0.0416,-0.0352,-0.023,-0.0074,-0.0085,0.0101,0.0108,0.0227,0.023,0.025,0.0253,0.0222,0.0222,0.0222,0.0221,0.0221,0,-0.0791,-0.0804,-0.0799,-0.0809,-0.0831,-0.079,-0.0794,-0.076,-0.0703,-0.0677,-0.0572,-0.0517,-0.0344,-0.0213,-0.0082,0.0107,0.0102,0.0232,0.0269,0.0231,0.0231,0.0195,0.019,0.0226,0.0225,0.0224,0.0223,0,-0.0835,-0.0828,-0.0856,-0.0853,-0.0856,-0.0873,-0.0859,-0.0857,-0.0796,-0.0757,-0.0732,-0.0583,-0.0408,-0.0227,-0.001,0.0103,0.0274,0.0344,0.0289,0.0317,0.0369,0.036,0.0485,0.0488,0.0489,0.0491,0.0492,0,-0.0855,-0.0874,-0.0905,-0.0934,-0.0937,-0.0953,-0.0963,-0.0914,-0.0901,-0.0789,-0.077,-0.0595,-0.0454,-0.0129,0.0099,0.0344,0.0342,0.0459,0.0435,0.0375,0.0398,0.0386,0.0375,0.0445,0.0446,0.0447,0.0447,0,-0.0897,-0.0912,-0.094,-0.1006,-0.1034,-0.106,-0.1062,-0.1064,-0.0988,-0.0926,-0.0802,-0.0678,-0.0362,-0.009,0.0221,0.0359,0.0412,0.048,0.045,0.0374,0.0345,0.0365,0.0354,0.0453,0.0453,0.0452,0.0452,0.0452,-0.093,-0.097,-0.1015,-0.1073,-0.1116,-0.1148,-0.1168,-0.1136,-0.1095,-0.0981,-0.0838,-0.0625,-0.0361,0.0082,0.0308,0.051,0.0499,0.0551,0.0545,0.054,0.0504,0.0479,0.0606,0.0606,0.0606,0.0607,0.0607,0,-0.0963,-0.1011,-0.1078,-0.1147,-0.1207,-0.1205,-0.1221,-0.121,-0.1154,-0.0998,-0.0843,-0.0513,-0.0195,0.0075,0.0401,0.0596,0.0575,0.0626,0.0557,0.055,0.0544,0.0505,0.0609,0.061,0.0611,0.0611,0,0,-0.0981,-0.1053,-0.1091,-0.1201,-0.1253,-0.1307,-0.1316,-0.1262,-0.1161,-0.0988,-0.0804,-0.0559,-0.0208,0.0028,0.0278,0.0448,0.0442,0.0463,0.0439,0.0319,0.0311,0.0481,0.0412,0,0,0,0,0]}],[{"header":{"parameterUnit":"m.s-1","parameterCategory":2,"la1":30.2991,"la2":30.254,"lo1":-89.0895,"lo2":-89.0444,"dy":0.0017,"dx":0.0017,"nx":28,"ny":28,"refTime":"2026-01-30T03:00:00:Z","depth":"4","parameterNumber":2,"parameterNumberName":"U-component_of_CURRENTS"},"data":[0,0,0,0,0,0,0,0,0,0,0,0,0,0,0,0,0,0,0,0,0,0,0,0,0,0,0,0,0,0,0,0,0,0,0,0,0,0,0,0,0,0,0,0,0,0,0,0,0,0,0,0,0,0,0,0,0,0,-0.1719,-0.172,0,-0.1813,-0.1813,-0.1814,-0.1857,-0.1858,-0.1858,-0.1858,-0.1971,-0.1973,-0.1976,0,0,0,0,0,0,0,0,0,0,0,0,0,-0.1604,-0.1605,-0.1719,-0.172,-0.1722,-0.1812,-0.1813,-0.1814,-0.1857,-0.1858,-0.1858,-0.1858,-0.197,-0.1973,-0.1976,0,0,0,0,0,0,0,0,0,0,0,0,0,-0.1669,-0.1606,-0.1719,-0.1756,-0.176,-0.1812,-0.1813,-0.1815,-0.1857,-0.1858,-0.1858,-0.1858,-0.1968,-0.1973,-0.1977,-0.2,0,0,-0.199,-0.1992,0,0,0,0,0,0,0,0,-0.1665,-0.1673,-0.1749,-0.1753,-0.1758,-0.1826,-0.1815,-0.1878,-0.1857,-0.1818,-0.1858,-0.1858,-0.1925,-0.1933,-0.1947,-0.2005,-0.201,-0.1991,-0.1993,-0.1995,-0.1996,0,0,0,0,0,0,0,-0.1661,-0.1669,-0.1754,-0.175,-0.1756,-0.1777,-0.1786,-0.1827,-0.1868,-0.1821,-0.1825,-0.1839,-0.1928,-0.1942,-0.195,-0.2012,-0.199,-0.1994,-0.1997,-0.1999,-0.2166,-0.2168,0,0,0,0,0,0,-0.1652,-0.1665,-0.1751,-0.1757,-0.1714,-0.1779,-0.1789,-0.1802,-0.1867,-0.1878,-0.1839,-0.1841,-0.1935,-0.1945,-0.1954,-0.2056,-0.1995,-0.1999,-0.2001,-0.2164,-0.2167,-0.2169,0,0,0,0,0,0,-0.1649,-0.1659,-0.1747,-0.1715,-0.1728,-0.1781,-0.1795,-0.1804,-0.185,-0.1881,-0.1891,-0.188,-0.1935,-0.1948,-0.2017,-0.2058,-0.2001,-0.2005,-0.2162,-0.2165,-0.2168,-0.2214,0,0,0,0,0,0,-0.1646,-0.1657,-0.1678,-0.1714,-0.1729,-0.1794,-0.1795,-0.1805,-0.1857,-0.1862,-0.1919,-0.1928,-0.1937,-0.2011,-0.2021,-0.2063,-0.2008,-0.216,-0.2164,-0.2167,-0.221,-0.2218,-0.2225,0,0,0,0,0,-0.1641,-0.1669,-0.1679,-0.169,-0.1752,-0.1795,-0.1805,-0.1841,-0.186,-0.1884,-0.1926,-0.1928,-0.204,-0.2016,-0.2028,-0.2071,-0.2158,-0.2163,-0.2167,-0.2207,-0.2217,-0.2225,0,0,0,0,0,0,-0.1632,-0.1677,-0.1689,-0.1729,-0.1766,-0.1804,-0.184,-0.1862,-0.1915,-0.1932,-0.1955,-0.1967,-0.2042,-0.2053,-0.2025,-0.213,-0.2099,-0.2106,-0.2125,-0.2135,-0.2142,-0.2126,-0.2012,0,0,0,0,0,-0.1638,-0.1671,-0.171,-0.1745,-0.1768,-0.181,-0.184,-0.1864,-0.1909,-0.1934,-0.1974,-0.2019,-0.2064,-0.2096,-0.2133,-0.2196,-0.2172,-0.2231,-0.2238,-0.2244,-0.2241,-0.2239,-0.2245,-0.2182,-0.2182,-0.2182,0,0,-0.165,-0.1675,-0.1698,-0.1746,-0.1782,-0.1824,-0.1829,-0.1886,-0.1928,-0.1939,-0.2021,-0.2051,-0.2087,-0.2152,-0.2186,-0.217,-0.225,-0.225,-0.2255,-0.2247,-0.2244,-0.225,-0.2255,-0.2185,-0.2185,-0.2184,0,0,-0.1671,-0.1709,-0.1739,-0.1775,-0.1831,-0.1858,-0.1881,-0.1937,-0.1974,-0.2047,-0.2065,-0.2116,-0.2195,-0.2217,-0.224,-0.2312,-0.2288,-0.2336,-0.2366,-0.2365,-0.2369,-0.2373,-0.2342,-0.2342,-0.2341,-0.2341,-0.2341,0,-0.1687,-0.1722,-0.1756,-0.1792,-0.1833,-0.1877,-0.1922,-0.1966,-0.2038,-0.2071,-0.2083,-0.2189,-0.2221,-0.2284,-0.2311,-0.2328,-0.2313,-0.2328,-0.2372,-0.2375,-0.2378,-0.2345,-0.2345,-0.2344,-0.2344,-0.2343,-0.2343,0,-0.1713,-0.1762,-0.1789,-0.1847,-0.1892,-0.1945,-0.2002,-0.2057,-0.211,-0.2143,-0.2227,-0.2264,-0.2317,-0.2345,-0.2356,-0.2403,-0.238,-0.2377,-0.2342,-0.2386,-0.235,-0.2349,-0.2348,-0.2347,-0.2346,-0.2345,0,0,-0.1701,-0.1792,-0.1805,-0.1845,-0.1932,-0.1968,-0.205,-0.2122,-0.2171,-0.224,-0.2294,-0.2374,-0.2383,-0.2408,-0.2427,-0.2435,-0.2443,-0.2422,-0.2421,-0.2377,-0.2422,-0.2262,-0.2245,-0.2451,-0.2452,-0.2452,-0.2384,0,-0.1719,-0.1789,-0.1834,-0.1921,-0.1968,-0.204,-0.2105,-0.2176,-0.2238,-0.2298,-0.2342,-0.24,-0.2411,-0.2439,-0.2452,-0.2452,-0.2445,-0.246,-0.2397,-0.2394,-0.2236,-0.224,-0.2453,-0.2383,-0.2382,-0.2382,-0.2382,0,-0.1721,-0.1773,-0.1855,-0.196,-0.1988,-0.2048,-0.2156,-0.2217,-0.2303,-0.2349,-0.2404,-0.2431,-0.2473,-0.2466,-0.247,-0.2482,-0.2455,-0.2441,-0.2438,-0.2268,-0.2232,-0.2333,-0.2379,-0.2379,-0.238,-0.238,-0.238,0,-0.1676,-0.1787,-0.1855,-0.1894,-0.2014,-0.2073,-0.214,-0.2235,-0.2286,-0.2373,-0.2406,-0.2457,-0.248,-0.2472,-0.2455,-0.2467,-0.2428,-0.2436,-0.2258,-0.2246,-0.239,-0.2387,-0.2415,-0.2415,-0.2415,-0.2415,-0.2415,0,-0.166,-0.1721,-0.1846,-0.1883,-0.1965,-0.2057,-0.2143,-0.2214,-0.2302,-0.2334,-0.2421,-0.243,-0.2485,-0.2473,-0.245,-0.2335,-0.242,-0.2246,-0.2215,-0.2411,-0.2412,-0.2388,-0.2386,-0.2412,-0.2413,-0.2414,-0.2414,0,-0.1593,-0.1682,-0.1763,-0.1899,-0.1945,-0.2001,-0.2132,-0.2174,-0.2278,-0.2318,-0.2343,-0.2414,-0.2383,-0.2401,-0.2373,-0.2302,-0.2228,-0.2165,-0.2353,-0.2337,-0.2046,-0.2048,-0.1949,-0.1942,-0.1937,-0.1933,-0.1929,0,-0.1559,-0.1594,-0.1745,-0.1788,-0.1857,-0.1956,-0.2009,-0.2141,-0.2173,-0.2273,-0.2261,-0.2286,-0.2305,-0.2125,-0.2173,-0.2091,-0.2072,-0.2023,-0.205,-0.2016,-0.1998,-0.2008,-0.2016,-0.1921,-0.1919,-0.1918,-0.1916,0,-0.1481,-0.1549,-0.1609,-0.1696,-0.1772,-0.184,-0.1925,-0.1935,-0.2053,-0.2169,-0.2106,-0.2073,-0.2028,-0.1994,-0.1943,-0.1895,-0.2054,-0.1968,-0.1979,-0.2004,-0.1981,-0.197,-0.1985,-0.1898,-0.1901,-0.1902,-0.1903,0,-0.1413,-0.1432,-0.1514,-0.1573,-0.166,-0.168,-0.1755,-0.1775,-0.1821,-0.1935,-0.1899,-0.1924,-0.199,-0.1888,-0.1841,-0.1779,-0.1756,-0.1708,-0.1732,-0.1753,-0.1723,-0.1668,-0.1442,0,0,0,0,0,-0.133,-0.1331,-0.1378,-0.1432,-0.1509,-0.155,-0.1668,-0.1742,-0.1858,-0.1756,-0.1823,-0.1765,-0.1689,-0.171,-0.16,-0.1757,-0.1771,-0.1624,-0.1733,-0.1796,-0.1817,-0.1801,0,0,0,0,0,0,-0.1275,-0.1312,-0.1326,-0.1291,-0.1289,-0.1352,-0.1415,-0.1503,-0.1464,-0.1584,-0.1547,-0.1639,-0.159,-0.1697,-0.1548,-0.1555,-0.1585,-0.1654,-0.1649,-0.1784,-0.1803,-0.182,-0.1811,0,0,0,0,0]},{"header":{"parameterUnit":"m.s-1","parameterCategory":2,"la1":30.2991,"la2":30.254,"lo1":-89.0895,"lo2":-89.0444,"dy":0.0017,"dx":0.0017,"nx":28,"ny":28,"refTime":"2026-01-30T03:00:00:Z","depth":"4","parameterNumber":3,"parameterNumberName":"V-component_of_CURRENTS"},"data":[0,0,0,0,0,0,0,0,0,0,0,0,0,0,0,0,0,0,0,0,0,0,0,0,0,0,0,0,0,0,0,0,0,0,0,0,0,0,0,0,0,0,0,0,0,0,0,0,0,0,0,0,0,0,0,0,0,0,-0.0396,-0.0395,0,-0.0358,-0.0357,-0.0357,-0.0339,-0.0339,-0.0339,-0.0339,-0.0227,-0.0224,-0.0221,0,0,0,0,0,0,0,0,0,0,0,0,0,-0.0433,-0.0433,-0.0396,-0.0395,-0.0395,-0.0358,-0.0357,-0.0357,-0.0339,-0.0339,-0.0339,-0.0339,-0.0228,-0.0224,-0.0221,0,0,0,0,0,0,0,0,0,0,0,0,0,-0.0409,-0.0433,-0.0396,-0.0381,-0.038,-0.0358,-0.0357,-0.0357,-0.0339,-0.0339,-0.0339,-0.0339,-0.0229,-0.0225,-0.022,-0.0192,0,0,-0.0206,-0.0204,0,0,0,0,0,0,0,0,-0.041,-0.0407,-0.0384,-0.0382,-0.038,-0.0353,-0.0329,-0.0298,-0.0339,-0.0355,-0.0339,-0.0339,-0.0262,-0.0255,-0.0249,-0.0187,-0.0182,-0.0206,-0.0203,-0.0201,-0.02,0,0,0,0,0,0,0,-0.0412,-0.0409,-0.0381,-0.0384,-0.0381,-0.037,-0.0367,-0.0323,-0.0307,-0.0353,-0.0352,-0.0347,-0.026,-0.0253,-0.0246,-0.018,-0.0206,-0.0202,-0.0199,-0.0198,-0.0081,-0.0081,0,0,0,0,0,0,-0.0417,-0.041,-0.0382,-0.038,-0.0395,-0.0369,-0.0366,-0.0362,-0.031,-0.0302,-0.0347,-0.0347,-0.0261,-0.0251,-0.0242,-0.0202,-0.0201,-0.0197,-0.0195,-0.0082,-0.0081,-0.0081,0,0,0,0,0,0,-0.0418,-0.0415,-0.0384,-0.0394,-0.0389,-0.0369,-0.0365,-0.0361,-0.0359,-0.0306,-0.0297,-0.035,-0.0261,-0.0248,-0.0207,-0.0198,-0.0195,-0.0191,-0.0082,-0.0082,-0.0081,-0.0124,0,0,0,0,0,0,-0.0419,-0.0416,-0.0421,-0.0394,-0.0389,-0.038,-0.0365,-0.036,-0.0356,-0.0355,-0.0304,-0.0294,-0.026,-0.0214,-0.0203,-0.0191,-0.0188,-0.0083,-0.0082,-0.0081,-0.0123,-0.0125,-0.0127,0,0,0,0,0,-0.0421,-0.0426,-0.0421,-0.0418,-0.0394,-0.038,-0.0377,-0.0362,-0.0356,-0.036,-0.0322,-0.0296,-0.0201,-0.0211,-0.0197,-0.0184,-0.0083,-0.0082,-0.0081,-0.0123,-0.0125,-0.0127,0,0,0,0,0,0,-0.0442,-0.0423,-0.0418,-0.0417,-0.0404,-0.0378,-0.0379,-0.0367,-0.0342,-0.0341,-0.029,-0.0277,-0.0239,-0.0205,-0.0217,-0.0148,-0.0137,-0.0134,-0.0173,-0.0175,-0.0177,-0.0189,-0.0184,0,0,0,0,0,-0.0449,-0.0453,-0.0429,-0.0431,-0.0425,-0.0404,-0.0398,-0.039,-0.0362,-0.0352,-0.0314,-0.0269,-0.0223,-0.0197,-0.0157,-0.0118,-0.0084,-0.01,-0.0102,-0.0104,-0.0104,-0.005,-0.0047,-0.0078,-0.0078,-0.0078,0,0,-0.0458,-0.045,-0.0451,-0.0437,-0.0426,-0.042,-0.0401,-0.0398,-0.0389,-0.0341,-0.0317,-0.0277,-0.0216,-0.0176,-0.0154,-0.0146,-0.0077,-0.0102,-0.0105,-0.0104,-0.0048,-0.0045,-0.0043,-0.0077,-0.0077,-0.0078,0,0,-0.0477,-0.047,-0.0478,-0.0469,-0.0458,-0.0441,-0.0443,-0.0419,-0.0406,-0.0379,-0.0338,-0.0294,-0.0232,-0.0183,-0.015,-0.0135,-0.0092,-0.0122,-0.0134,-0.0081,-0.0078,-0.0075,-0.0031,-0.0024,-0.0118,-0.0118,-0.0118,0,-0.049,-0.0494,-0.0479,-0.0482,-0.0475,-0.0453,-0.0454,-0.0435,-0.0402,-0.0382,-0.0379,-0.028,-0.0233,-0.0165,-0.0162,-0.0138,-0.0107,-0.0133,-0.0084,-0.008,-0.0077,-0.0032,-0.0023,-0.012,-0.012,-0.012,-0.0119,0,-0.0509,-0.0515,-0.0518,-0.0513,-0.0504,-0.0505,-0.0475,-0.0463,-0.0444,-0.0416,-0.0361,-0.03,-0.0239,-0.0215,-0.0183,-0.0126,-0.0113,-0.0099,-0.0083,-0.0076,-0.0029,-0.002,-0.0123,-0.0122,-0.0122,-0.0121,0,0,-0.0528,-0.0532,-0.0534,-0.0541,-0.0521,-0.0518,-0.0499,-0.0468,-0.0455,-0.0413,-0.038,-0.0301,-0.0271,-0.0231,-0.018,-0.0132,-0.0079,-0.0109,-0.0106,-0.0073,0.0032,0.0012,0.0021,-0.0059,-0.0057,-0.0056,0.0053,0,-0.0547,-0.0568,-0.0556,-0.0569,-0.0574,-0.0546,-0.053,-0.05,-0.0467,-0.0431,-0.0357,-0.0311,-0.0274,-0.0247,-0.0191,-0.0111,-0.0055,-0.011,0.0028,0.0032,0.0008,0.0031,-0.0051,0.006,0.0063,0.0064,0.0066,0,-0.0566,-0.0578,-0.0599,-0.0601,-0.0599,-0.0602,-0.0575,-0.0558,-0.0495,-0.0467,-0.0405,-0.035,-0.0264,-0.0244,-0.0097,-0.0137,-0.0056,0.0006,0.0012,0.0015,0.003,0.0056,0.0084,0.0082,0.0081,0.008,0.0078,0,-0.0591,-0.0605,-0.0627,-0.0628,-0.0624,-0.0626,-0.0618,-0.0572,-0.0558,-0.0491,-0.0472,-0.0365,-0.0315,-0.0203,-0.0077,-0.0084,0.0077,0.0087,0.0152,0.0151,0.0154,0.015,0.0197,0.0197,0.0196,0.0196,0.0196,0,-0.0609,-0.0628,-0.0648,-0.0662,-0.0688,-0.0665,-0.0675,-0.0649,-0.0607,-0.0586,-0.0498,-0.0454,-0.0304,-0.0195,-0.008,0.0061,0.0082,0.0155,0.0181,0.0134,0.0126,0.0161,0.0156,0.02,0.0199,0.0198,0.0198,0,-0.063,-0.0642,-0.0677,-0.0694,-0.0706,-0.0725,-0.0732,-0.0731,-0.0686,-0.0656,-0.0636,-0.0514,-0.0373,-0.0219,-0.0031,0.005,0.019,0.024,0.0174,0.0194,0.0231,0.0222,0.032,0.032,0.032,0.0321,0.0321,0,-0.0639,-0.0661,-0.0716,-0.075,-0.0766,-0.0793,-0.0811,-0.078,-0.077,-0.0687,-0.0668,-0.0533,-0.0436,-0.018,-0.0029,0.019,0.0219,0.0286,0.0263,0.0229,0.0245,0.0236,0.0227,0.0321,0.0321,0.0321,0.0321,0,-0.0658,-0.0687,-0.072,-0.0797,-0.0839,-0.0872,-0.0887,-0.0883,-0.083,-0.0795,-0.0674,-0.0532,-0.0372,-0.0179,-0.0011,0.0145,0.0234,0.0289,0.029,0.0268,0.0232,0.0245,0.0236,0.0322,0.0322,0.0322,0.0322,0,-0.0676,-0.0712,-0.0771,-0.083,-0.0896,-0.0928,-0.0929,-0.0894,-0.0869,-0.0761,-0.0722,-0.0535,-0.0422,-0.0201,-0.0045,0.01,0.0135,0.0174,0.0181,0.0182,0.0101,0.0032,0.0089,0,0,0,0,0,-0.0685,-0.073,-0.0797,-0.0866,-0.0933,-0.0963,-0.0971,-0.0953,-0.09,-0.0818,-0.0761,-0.0602,-0.0355,-0.0245,-0.0101,-0.0062,0.0139,0.0109,0.0182,0.0327,0.0326,0.0251,0,0,0,0,0,0,-0.0694,-0.0761,-0.0796,-0.0883,-0.0936,-0.0995,-0.0999,-0.0962,-0.0896,-0.0823,-0.0685,-0.059,-0.035,-0.0442,-0.0107,-0.0063,-0.0002,0.0232,0.0235,0.0327,0.0326,0.0325,0.0248,0,0,0,0,0]}]]